Jaffrey, NH

11:54 AM EST on November 22, 2017 (GMT -0500)
Jaffrey Airport-Silver Ranch

Weather History for KAFN - May, 2013

Change the Weather History Date:

Friday, May 24, 2013

  Actual Average Record
Temperature  
Mean Temperature 56 °F -  
Max Temperature 66 °F 63 °F 86 °F (2007)
Min Temperature 45 °F 43 °F 39 °F (1997)
Degree Days  
Heating Degree Days 10    
Growing Degree Days 6 (Base 50)    
Moisture  
Dew Point 56 °F    
Average Humidity 87    
Maximum Humidity 100    
Minimum Humidity 72    
Precipitation  
Precipitation 0.19 in - - ()
Sea Level Pressure  
Sea Level Pressure 29.76 in    
Wind  
Wind Speed 7 mph (SW)    
Max Wind Speed 12 mph    
Max Gust Speed 24 mph    
Visibility 10 miles    
Events Rain    
Averages and records for this station are not official NWS values.
T = Trace of Precipitation, MM = Missing Value Source: NWS Daily Summary

Daily Weather History Graph

Daily Weather History Graph

Search for Another Location

Airport or City:

Trip Planner

Search our weather history database for the weather conditions in past years. The results will help you decide how hot, cold, wet, or windy it might be!

Date:

Astronomy

May. 24, 2013 Rise Set
Actual Time 5:17 AM EDT 8:13 PM EDT
Civil Twilight 4:43 AM EDT 8:46 PM EDT
Nautical Twilight 4:01 AM EDT 9:29 PM EDT
Astronomical Twilight 3:11 AM EDT 10:19 PM EDT
Moon 7:51 PM EDT (5/24) 4:48 AM EDT (5/24)
Length of Visible Light 16h 03m
Length of Day
14h 56m
Full, 100% of the Moon is Illuminated
May 24
Full
May 25
Full
May 31
Last Quarter
Jun 8
New
Jun 16
First Quarter

Hourly Weather History & Observations

Time (EDT) Temp. Windchill Dew Point Humidity Pressure Visibility Wind Dir Wind Speed Gust Speed Precip Events Conditions
12:04 AM 64.4 °F - 62.6 °F 94% 29.79 in 10.0 mi South 11.5 mph 19.6 mph N/A   Overcast
12:52 AM 64.0 °F - 62.1 °F 93% 29.78 in 10.0 mi South 10.4 mph - N/A   Overcast
1:52 AM 64.0 °F - 61.0 °F 90% 29.76 in 9.0 mi South 9.2 mph - 0.00 in Rain Light Rain
2:28 AM 64.4 °F - 60.8 °F 88% 29.74 in 7.0 mi South 8.1 mph - 0.03 in Rain Light Rain
2:37 AM 62.6 °F - 62.6 °F 100% 29.73 in 10.0 mi South 6.9 mph - 0.04 in Rain Light Rain
2:52 AM 63.0 °F - 61.0 °F 93% 29.73 in 10.0 mi South 4.6 mph - 0.04 in Rain Light Rain
3:02 AM 62.6 °F - 60.8 °F 94% 29.72 in 9.0 mi South 5.8 mph - 0.01 in Rain Light Rain
3:16 AM 62.6 °F - 60.8 °F 94% 29.72 in 9.0 mi South 4.6 mph - 0.01 in Rain Light Rain
3:34 AM 62.6 °F - 60.8 °F 94% 29.71 in 10.0 mi South 6.9 mph - 0.02 in Rain Light Rain
3:47 AM 62.6 °F - 60.8 °F 94% 29.71 in 10.0 mi South 5.8 mph - 0.02 in Rain Light Rain
3:52 AM 63.0 °F - 61.0 °F 93% 29.71 in 9.0 mi South 5.8 mph - 0.03 in Rain Light Rain
4:52 AM 63.0 °F - 61.0 °F 93% 29.70 in 10.0 mi SW 3.5 mph - 0.02 in Rain Light Rain
5:39 AM 62.6 °F - 60.8 °F 94% 29.68 in 10.0 mi Calm Calm - 0.01 in   Overcast
5:52 AM 63.0 °F - 61.0 °F 93% 29.68 in 10.0 mi SSW 5.8 mph - 0.01 in   Overcast
6:52 AM 63.0 °F - 61.0 °F 93% 29.69 in 10.0 mi SSW 6.9 mph - N/A   Overcast
7:52 AM 63.0 °F - 61.0 °F 93% 29.71 in 10.0 mi SW 4.6 mph - 0.00 in   Overcast
8:02 AM 62.6 °F - 60.8 °F 94% 29.71 in 10.0 mi SSW 4.6 mph - N/A   Overcast
8:52 AM 63.0 °F - 61.0 °F 93% 29.74 in 10.0 mi SW 3.5 mph - N/A   Overcast
9:20 AM 62.6 °F - 60.8 °F 94% 29.74 in 10.0 mi WSW 3.5 mph - 0.00 in Rain Light Rain
9:30 AM 62.6 °F - 60.8 °F 94% 29.73 in 10.0 mi Variable 3.5 mph - 0.00 in Rain Light Rain
9:38 AM 64.4 °F - 60.8 °F 88% 29.73 in 10.0 mi SSW 3.5 mph - 0.01 in Rain Light Rain
9:45 AM 64.4 °F - 60.8 °F 88% 29.73 in 10.0 mi Variable 3.5 mph - 0.01 in Rain Light Rain
9:52 AM 64.0 °F - 61.0 °F 90% 29.74 in 10.0 mi Calm Calm - 0.01 in Rain Light Rain
10:47 AM 66.2 °F - 60.8 °F 83% 29.74 in 10.0 mi West 4.6 mph - 0.00 in   Mostly Cloudy
10:52 AM 66.0 °F - 60.1 °F 81% 29.74 in 10.0 mi West 6.9 mph - 0.00 in   Mostly Cloudy
11:00 AM 66.2 °F - 60.8 °F 83% 29.74 in 10.0 mi West 3.5 mph - N/A   Mostly Cloudy
11:36 AM 66.2 °F - 60.8 °F 83% 29.74 in 10.0 mi SSW 5.8 mph - N/A   Overcast
11:52 AM 66.0 °F - 60.1 °F 81% 29.75 in 10.0 mi Variable 4.6 mph - N/A   Overcast
12:17 PM 60.8 °F - 57.2 °F 88% 29.75 in 10.0 mi WNW 4.6 mph - 0.01 in Rain Light Rain
12:48 PM 60.8 °F - 57.2 °F 88% 29.76 in 10.0 mi West 5.8 mph - 0.01 in   Overcast
12:52 PM 61.0 °F - 55.9 °F 83% 29.77 in 10.0 mi WSW 4.6 mph - 0.01 in   Overcast
1:50 PM 60.8 °F - 53.6 °F 77% 29.77 in 10.0 mi Variable 5.8 mph - N/A   Overcast
1:52 PM 61.0 °F - 54.0 °F 78% 29.78 in 10.0 mi North 6.9 mph - N/A   Overcast
2:43 PM 55.4 °F - 51.8 °F 88% 29.78 in 10.0 mi Variable 6.9 mph - N/A   Overcast
2:52 PM 55.9 °F - 51.1 °F 84% 29.79 in 10.0 mi NNW 8.1 mph - N/A   Overcast
3:05 PM 57.2 °F - 50.0 °F 77% 29.78 in 10.0 mi North 8.1 mph 16.1 mph N/A   Overcast
3:41 PM 55.4 °F - 48.2 °F 77% 29.79 in 10.0 mi North 8.1 mph 19.6 mph N/A   Overcast
3:52 PM 55.0 °F - 46.9 °F 74% 29.80 in 10.0 mi North 10.4 mph 20.7 mph N/A   Overcast
4:36 PM 55.4 °F - 46.4 °F 72% 29.79 in 10.0 mi Variable 6.9 mph 16.1 mph N/A   Overcast
4:52 PM 54.0 °F - 45.0 °F 72% 29.81 in 10.0 mi NNW 8.1 mph 24.2 mph N/A   Overcast
5:52 PM 51.1 °F - 43.0 °F 74% 29.82 in 10.0 mi NNW 8.1 mph 23.0 mph N/A   Overcast
6:52 PM 50.0 °F - 43.0 °F 77% 29.83 in 10.0 mi Variable 6.9 mph - N/A   Overcast
7:52 PM 48.0 °F - 42.1 °F 80% 29.86 in 10.0 mi Variable 5.8 mph - N/A   Overcast
8:52 PM 46.0 °F 43.1 °F 43.0 °F 89% 29.87 in 10.0 mi North 5.8 mph - 0.01 in Rain Light Rain
9:52 PM 45.0 °F 43.5 °F 43.0 °F 93% 29.88 in 6.0 mi North 3.5 mph - 0.01 in Rain Light Rain
10:52 PM 45.0 °F 42.6 °F 43.0 °F 93% 29.88 in 6.0 mi Variable 4.6 mph - 0.01 in Rain Light Rain
11:52 PM 45.0 °F - 43.0 °F 93% 29.88 in 4.0 mi Calm Calm - 0.04 in Rain Rain